Regional Weather Roundup
Issued by NWS

Home | Current Version | Previous Version | Graphics & Text | Print | Product List | Glossary On
Versions: 1 2 3 4 5 6 7 8 9 10 11 12 13 14 15 16 17 18 19 20 21 22 23 24 25 26 27 28 29 30 31 32 33 34 35 36 37 38 39 40 41 42 43 44 45 46 47 48 49 50
667
ASUS45 KTFX 240710
RWRMT
MONTANA REGIONAL WEATHER ROUNDUP
NATIONAL WEATHER SERVICE GREAT FALLS MT
100 AM MDT MON JUL 24 2017

NOTE: "FAIR" INDICATES FEW OR NO CLOUDS BELOW 12000 FEET WITH NO
SIGNIFICANT WEATHER AND/OR OBSTRUCTIONS TO VISIBILITY.

MTZ001>007-043-240800-
WEST OF THE DIVIDE

CITY           SKY/WX    TMP DP  RH WIND       PRES   REMARKS
KALISPELL      CLEAR     69  49  48 S5        29.83S
MISSOULA       PTCLDY    69  44  40 N7        29.89S
BUTTE          CLEAR     63  42  46 S6        30.05R
MULLAN PASS    CLEAR     64  42  44 VRB7      30.06F
ANACONDA         N/A     72  39  30 S5        30.00S
DEER LODGE       N/A     72  45  37 CALM      30.00R
EUREKA           N/A     73  46  38 MISG      29.79S
HAMILTON         N/A     64  48  55 CALM      29.93S
LIBBY            N/A     70  48  46 SE5       29.80R
PLAINS           N/A     66  48  52 CALM      29.87R
$$

MTZ008-052>055-240800-
SOUTHWEST MONTANA

CITY           SKY/WX    TMP DP  RH WIND       PRES   REMARKS
BOZEMAN        CLEAR     62  44  51 SE8       29.93S
DILLON         CLEAR     69  36  29 S13       30.00R
W YELLOWSTONE  CLEAR     52  36  54 CALM      30.16R
ENNIS          PTCLDY    70  34  26 S9        30.05S
THREE FORKS      N/A     58  46  64 NW1       29.93R
TWIN BRIDGES     N/A     67  32  27 CALM      29.97R
$$

MTZ009-010-012-014-046-048-049-054-240800-
EAST SLOPES AND CENTRAL MONTANA

CITY           SKY/WX    TMP DP  RH WIND       PRES   REMARKS
CUT BANK       CLEAR     69  43  38 W8        29.83R
GREAT FALLS    CLOUDY    72  37  28 S10       29.82S
HELENA         CLEAR     79  43  27 SW8       29.90R
CHOTEAU          N/A     72  43  35 W8        29.85S
$$

MTZ011-013-016-021-045-047-050-051-240800-
NORTH CENTRAL MONTANA

CITY           SKY/WX    TMP DP  RH WIND       PRES   REMARKS
HAVRE          CLOUDY    68  45  43 S9        29.70S
LEWISTOWN      CLEAR     72  35  25 S12       29.85S
N BAR RANCH      N/A     77  32  19 W10       29.90S
CHINOOK          N/A     68  52  56 CALM      29.68S
$$

MTZ017>020-022>027-061-062-240800-
NORTHEAST MONTANA

CITY           SKY/WX    TMP DP  RH WIND       PRES   REMARKS
GLASGOW        CLEAR     72  42  34 E12       29.71F
JORDAN           N/A     76  38  25 S9        29.74F
SIDNEY         PTCLDY    76  54  46 S14G20    29.81F
WOLF POINT     CLEAR     80  47  31 S8        29.73S
MALTA          MOCLDY    75  41  29 SW5       29.66F
PLENTYWOOD       N/A     72  52  49 SE8       29.79F
POPLAR           N/A     81  48  32 SE10      29.75S
SCOBEY           N/A     77  46  33 SE10      29.77F
$$

MTZ028>42-056>058-240800-
SOUTHCENTRAL AND SOUTHEAST MONTANA

CITY           SKY/WX    TMP DP  RH WIND       PRES   REMARKS
BAKER          PTCLDY    74  49  41 S24G30    29.92R
BILLINGS       CLEAR     78  36  21 W14       29.84S
LIVINGSTON     CLEAR     63  40  42 NW18      29.93R
MILES CITY     PTCLDY    80  44  27 SE13      29.78F
BIG TIMBER     CLEAR     64  37  36 W5        29.94S
FORSYTH          N/A     81  45  28 S8        29.77S
LAUREL           N/A     72  37  27 SW5       29.86R
$$

REGIONAL REPORTS...DAKOTAS

CITY           SKY/WX    TMP DP  RH WIND       PRES   REMARKS
WILLISTON      PTCLDY    76  55  48 VRB5      29.82F
MINOT          CLEAR     66  58  75 SE6       29.88F
DICKINSON      CLEAR     68  55  63 SE15      29.90F
BEACH            N/A     70  52  52 SE18      29.91S
CROSBY           N/A     72  54  53 S18G30    29.80F
TIOGA            N/A     70  55  60 S16G24    29.87F
WATFORD CITY     N/A     75  54  46 S20G28    29.84F
BISMARCK       CLEAR     67  59  75 SE12      29.94F
GRAND FORKS    CLEAR     62  61  96 S5        29.97S
BUFFALO SD       N/A     73  51  46 SE20      29.88R
RAPID CITY     PTCLDY    69  51  52 SE8       29.95F
$$

REGIONAL REPORTS...WYOMING/IDAHO/WASHINGTON

CITY           SKY/WX    TMP DP  RH WIND       PRES   REMARKS
GILLETTE       CLOUDY    67  56  67 E6        29.97S
SHERIDAN       CLEAR     64  47  53 SW5       29.91R
BUFFALO WY     CLEAR     70  38  31 N6        30.00S
CODY           CLEAR     72  39  30 SW13      30.02S
YELLOWSTONE LA   N/A     46  38  73 CALM      30.28S
IDAHO FALLS    CLOUDY    67  46  47 SW6       30.01R
BOISE          MOCLDY    77  40  26 CALM      29.87S
SPOKANE        CLEAR     73  45  36 SW8       29.84R
$$

REGIONAL REPORTS...ALBERTA

CITY           SKY/WX    TMP DP  RH WIND       PRES   REMARKS
EDMONTON       LGT RAIN  50  50 100 W16G22    29.92R
CALGARY        LGT RAIN  46  43  87 N21G28    29.98R
LETHBRIDGE     CLEAR     57  48  72 N24G43    29.91R
MEDICINE HAT   PTCLDY    70  55  60 NW29G44   29.70R
WATERTON GATE    N/A     66  46  48 N10G37      N/A
CARDSTON         N/A     54  48  82 N20G33      N/A
MILK RIVER       N/A     59  50  72 NW25G41     N/A
$$

REGIONAL REPORTS...SASKATCHEWAN

CITY           SKY/WX    TMP DP  RH WIND       PRES   REMARKS
SWIFT CURRENT  CLEAR     70  50  49 SE13      29.64F
SASKATOON      TSTM      70  61  73 SE14G20   29.58F
CYPRESS HILLS    N/A     68  39  34 W5          N/A
VAL MARIE        N/A     61  43  51 E3          N/A
ROCKGLEN         N/A     72  43  35 S14         N/A
ASSINIBOIA       N/A     54  52  94 NW18G24     N/A
$$




USA.gov is the U.S. government's official web portal to all federal, state and local government web resources and services.